WMT6BD EBCI-LATI

Flight info

Callsign WMT6BD
Flight time 1h 58m
Altitude 37000
Route RITAX M624 DIK M150 PITES DCT EDISA DCT PICWI DCT UTABA DCT BEMKI DCT ELMEM DCT DIRAB DCT RASUG DCT OKLAX DCT SIPAL DCT PETAK
Aircraft A321/M-SDE3FGHIRWY/LB1

Departure

Time 2026-05-09 07:49
Airport Brussels South Charleroi Airport (EBCI)

Arrival

Time 2026-05-09 09:47
Airport Tirana International Airport Mother Teresa (LATI)
Time Latitude Longitude Altitude Speed Heading
2026-05-09 07:07 50.46958 4.47400 624 ft 0 kts 335°
2026-05-09 07:37 50.46956 4.47402 627 ft 3 kts 335°
2026-05-09 07:37 50.46935 4.47416 625 ft 3 kts 335°
2026-05-09 07:37 50.46919 4.47428 625 ft 3 kts 311°
2026-05-09 07:37 50.46913 4.47452 626 ft 3 kts 250°
2026-05-09 07:38 50.46922 4.47483 613 ft 3 kts 245°
2026-05-09 07:38 50.46924 4.47491 629 ft 0 kts 245°
2026-05-09 07:41 50.46924 4.47490 629 ft 1 kts 245°
2026-05-09 07:42 50.46919 4.47475 613 ft 2 kts 245°
2026-05-09 07:42 50.46910 4.47441 630 ft 4 kts 245°
2026-05-09 07:42 50.46895 4.47391 622 ft 6 kts 245°
2026-05-09 07:42 50.46870 4.47331 620 ft 7 kts 218°
2026-05-09 07:43 50.46820 4.47340 620 ft 8 kts 159°
2026-05-09 07:43 50.46766 4.47331 618 ft 9 kts 226°
2026-05-09 07:43 50.46734 4.47239 625 ft 10 kts 244°
2026-05-09 07:43 50.46702 4.47128 613 ft 12 kts 245°
2026-05-09 07:44 50.46666 4.47004 621 ft 13 kts 245°
2026-05-09 07:44 50.46626 4.46866 619 ft 15 kts 245°
2026-05-09 07:44 50.46581 4.46713 620 ft 16 kts 245°
2026-05-09 07:44 50.46533 4.46547 626 ft 17 kts 245°
2026-05-09 07:45 50.46481 4.46368 625 ft 19 kts 245°
2026-05-09 07:45 50.46425 4.46177 616 ft 20 kts 245°
2026-05-09 07:45 50.46367 4.45976 628 ft 21 kts 245°
2026-05-09 07:45 50.46306 4.45764 621 ft 22 kts 245°
2026-05-09 07:46 50.46242 4.45543 617 ft 23 kts 245°
2026-05-09 07:46 50.46175 4.45314 623 ft 24 kts 245°
2026-05-09 07:46 50.46105 4.45075 618 ft 24 kts 245°
2026-05-09 07:46 50.46033 4.44828 623 ft 25 kts 246°
2026-05-09 07:47 50.45960 4.44573 619 ft 26 kts 246°
2026-05-09 07:47 50.45862 4.44332 618 ft 27 kts 232°
2026-05-09 07:47 50.45768 4.44140 625 ft 16 kts 232°
2026-05-09 07:47 50.45701 4.44005 628 ft 14 kts 230°
2026-05-09 07:48 50.45625 4.44012 621 ft 9 kts 133°
2026-05-09 07:48 50.45629 4.44055 619 ft 0 kts 68°
2026-05-09 07:48 50.45630 4.44055 619 ft 1 kts 68°
2026-05-09 07:48 50.45659 4.44164 617 ft 38 kts 66°
2026-05-09 07:49 50.45880 4.44915 620 ft 111 kts 65°
2026-05-09 07:49 50.46277 4.46311 640 ft 164 kts 66°
2026-05-09 07:49 50.46755 4.47913 1332 ft 163 kts 58°
2026-05-09 07:49 50.47475 4.49310 2017 ft 167 kts 51°
2026-05-09 07:50 50.48227 4.50670 2653 ft 166 kts 51°
2026-05-09 07:50 50.48984 4.52034 3255 ft 165 kts 50°
2026-05-09 07:50 50.49735 4.53400 3835 ft 166 kts 51°
2026-05-09 07:50 50.50525 4.54851 4116 ft 186 kts 51°
2026-05-09 07:51 50.51417 4.56496 4377 ft 209 kts 51°
2026-05-09 07:51 50.52405 4.58323 4583 ft 231 kts 51°
2026-05-09 07:51 50.53483 4.60389 4825 ft 256 kts 52°
2026-05-09 07:51 50.54609 4.62649 5439 ft 267 kts 54°
2026-05-09 07:52 50.55757 4.64986 6177 ft 273 kts 53°
2026-05-09 07:52 50.56929 4.67381 6911 ft 279 kts 53°
2026-05-09 07:52 50.58123 4.69822 7672 ft 284 kts 53°
2026-05-09 07:52 50.59333 4.72298 8465 ft 287 kts 53°
2026-05-09 07:53 50.60556 4.74803 9249 ft 291 kts 53°
2026-05-09 07:53 50.61799 4.77337 10035 ft 294 kts 53°
2026-05-09 07:53 50.63016 4.79994 10477 ft 308 kts 64°
2026-05-09 07:53 50.63644 4.83300 10658 ft 327 kts 88°
2026-05-09 07:54 50.63282 4.86859 11047 ft 335 kts 115°
2026-05-09 07:54 50.61990 4.89901 11654 ft 337 kts 133°
2026-05-09 07:54 50.60401 4.92645 12353 ft 341 kts 134°
2026-05-09 07:54 50.58782 4.95399 13031 ft 345 kts 134°
2026-05-09 07:55 50.57137 4.98175 13720 ft 349 kts 134°
2026-05-09 07:55 50.55472 5.00979 14353 ft 352 kts 134°
2026-05-09 07:55 50.53793 5.03809 14975 ft 356 kts 134°
2026-05-09 07:55 50.52104 5.06664 15643 ft 358 kts 134°
2026-05-09 07:56 50.50407 5.09538 16291 ft 360 kts 134°
2026-05-09 07:56 50.48691 5.12439 16908 ft 364 kts 134°
2026-05-09 07:56 50.46960 5.15366 17529 ft 367 kts 134°
2026-05-09 07:56 50.45212 5.18319 18165 ft 370 kts 133°
2026-05-09 07:57 50.43449 5.21290 18735 ft 373 kts 133°
2026-05-09 07:57 50.41673 5.24283 19264 ft 377 kts 133°
2026-05-09 07:57 50.39878 5.27298 19787 ft 380 kts 133°
2026-05-09 07:57 50.38066 5.30338 20318 ft 383 kts 133°
2026-05-09 07:58 50.36240 5.33403 20867 ft 386 kts 133°
2026-05-09 07:58 50.34401 5.36487 21378 ft 390 kts 133°
2026-05-09 07:58 50.32538 5.39608 21885 ft 394 kts 133°
2026-05-09 07:58 50.30659 5.42756 22389 ft 398 kts 133°
2026-05-09 07:59 50.28759 5.45931 22863 ft 402 kts 133°
2026-05-09 07:59 50.26839 5.49138 23346 ft 406 kts 133°
2026-05-09 07:59 50.24903 5.52368 23806 ft 409 kts 132°
2026-05-09 07:59 50.22944 5.55627 24151 ft 413 kts 133°
2026-05-09 08:00 50.20967 5.58912 24518 ft 417 kts 133°
2026-05-09 08:00 50.18974 5.62221 24904 ft 420 kts 133°
2026-05-09 08:00 50.16965 5.65546 25294 ft 422 kts 133°
2026-05-09 08:00 50.14943 5.68883 25684 ft 425 kts 133°
2026-05-09 08:01 50.12904 5.72241 26069 ft 427 kts 133°
2026-05-09 08:01 50.10854 5.75615 26454 ft 430 kts 133°
2026-05-09 08:01 50.08797 5.79004 26844 ft 432 kts 133°
2026-05-09 08:01 50.06711 5.82400 27171 ft 436 kts 134°
2026-05-09 08:02 50.04561 5.85736 27542 ft 438 kts 135°
2026-05-09 08:02 50.02359 5.89024 27923 ft 440 kts 136°
2026-05-09 08:02 50.00124 5.92293 28266 ft 443 kts 136°
2026-05-09 08:02 49.97866 5.95577 28581 ft 446 kts 136°
2026-05-09 08:03 49.95597 5.98895 28924 ft 449 kts 136°
2026-05-09 08:03 49.93330 6.02241 29276 ft 451 kts 136°
2026-05-09 08:03 49.91056 6.05617 29603 ft 454 kts 135°
2026-05-09 08:03 49.88775 6.09017 29973 ft 456 kts 135°
2026-05-09 08:04 49.86637 6.12650 30275 ft 458 kts 127°
2026-05-09 08:04 49.84867 6.16748 30550 ft 459 kts 118°
2026-05-09 08:04 49.83379 6.21134 30831 ft 461 kts 116°
2026-05-09 08:04 49.81892 6.25543 31129 ft 463 kts 117°
2026-05-09 08:05 49.80389 6.29965 31430 ft 464 kts 117°
2026-05-09 08:05 49.78883 6.34376 31842 ft 463 kts 116°
2026-05-09 08:05 49.77374 6.38780 32211 ft 463 kts 117°
2026-05-09 08:05 49.75863 6.43180 32595 ft 463 kts 117°
2026-05-09 08:06 49.74351 6.47570 32986 ft 462 kts 117°
2026-05-09 08:06 49.72839 6.51950 33371 ft 462 kts 117°
2026-05-09 08:06 49.71259 6.56267 33742 ft 461 kts 119°
2026-05-09 08:06 49.69602 6.60503 34128 ft 461 kts 121°
2026-05-09 08:07 49.67894 6.64686 34448 ft 460 kts 122°
2026-05-09 08:07 49.66164 6.68849 34752 ft 460 kts 122°
2026-05-09 08:07 49.64436 6.73002 35046 ft 460 kts 122°
2026-05-09 08:07 49.62717 6.77171 35333 ft 461 kts 121°
2026-05-09 08:08 49.61010 6.81369 35567 ft 463 kts 121°
2026-05-09 08:08 49.59312 6.85587 35841 ft 463 kts 121°
2026-05-09 08:08 49.57640 6.89757 36108 ft 464 kts 121°
2026-05-09 08:08 49.55921 6.94037 36392 ft 464 kts 121°
2026-05-09 08:09 49.54219 6.98258 36661 ft 464 kts 121°
2026-05-09 08:09 49.52533 7.02410 36918 ft 464 kts 122°
2026-05-09 08:09 49.50817 7.06622 37082 ft 465 kts 122°
2026-05-09 08:10 49.47384 7.15022 37104 ft 463 kts 122°
2026-05-09 08:10 49.43943 7.23415 37117 ft 465 kts 122°
2026-05-09 08:11 49.40485 7.31826 37113 ft 466 kts 122°
2026-05-09 08:11 49.37028 7.40233 37117 ft 466 kts 122°
2026-05-09 08:12 49.31816 7.52822 37122 ft 466 kts 122°
2026-05-09 08:12 49.28326 7.61203 37136 ft 467 kts 122°
2026-05-09 08:13 49.24840 7.69598 37115 ft 468 kts 122°
2026-05-09 08:13 49.21339 7.77990 37116 ft 468 kts 122°
2026-05-09 08:14 49.17815 7.86378 37117 ft 469 kts 122°
2026-05-09 08:14 49.14287 7.94763 37122 ft 469 kts 122°
2026-05-09 08:15 49.11348 8.01739 37125 ft 470 kts 123°
2026-05-09 08:15 49.07802 8.10138 37119 ft 471 kts 123°
2026-05-09 08:16 49.04240 8.18534 37115 ft 472 kts 123°
2026-05-09 08:16 49.00664 8.26921 37107 ft 472 kts 123°
2026-05-09 08:17 48.96384 8.34434 37111 ft 470 kts 140°
2026-05-09 08:17 48.91737 8.41442 37114 ft 471 kts 134°
2026-05-09 08:18 48.87250 8.48716 37111 ft 472 kts 134°
2026-05-09 08:18 48.82754 8.55973 37112 ft 472 kts 134°
2026-05-09 08:19 48.78242 8.63200 37117 ft 472 kts 134°
2026-05-09 08:19 48.73727 8.70415 37102 ft 471 kts 134°
2026-05-09 08:20 48.69205 8.77602 37115 ft 472 kts 135°
2026-05-09 08:20 48.64674 8.84789 37115 ft 472 kts 135°
2026-05-09 08:21 48.60138 8.91966 37115 ft 472 kts 135°
2026-05-09 08:21 48.55592 8.99144 37119 ft 473 kts 135°
2026-05-09 08:22 48.51039 9.06310 37111 ft 473 kts 135°
2026-05-09 08:22 48.46483 9.13474 37132 ft 474 kts 135°
2026-05-09 08:23 48.41948 9.20589 37127 ft 474 kts 135°
2026-05-09 08:23 48.37375 9.27739 37121 ft 474 kts 135°
2026-05-09 08:24 48.32791 9.34873 37121 ft 474 kts 135°
2026-05-09 08:24 48.28196 9.41981 37122 ft 474 kts 135°
2026-05-09 08:25 48.23409 9.48754 37111 ft 472 kts 143°
2026-05-09 08:25 48.18331 9.55007 37118 ft 473 kts 143°
2026-05-09 08:26 48.13242 9.61248 37118 ft 473 kts 143°
2026-05-09 08:26 48.08150 9.67491 37127 ft 473 kts 143°
2026-05-09 08:27 48.03056 9.73732 37126 ft 474 kts 143°
2026-05-09 08:27 47.97959 9.79956 37126 ft 473 kts 143°
2026-05-09 08:28 47.92854 9.86152 37130 ft 473 kts 144°
2026-05-09 08:28 47.87750 9.92329 37141 ft 472 kts 144°
2026-05-09 08:29 47.82687 9.98452 37129 ft 472 kts 144°
2026-05-09 08:29 47.77590 10.04609 37109 ft 472 kts 144°
2026-05-09 08:30 47.72489 10.10749 37117 ft 472 kts 144°
2026-05-09 08:30 47.67382 10.16884 37126 ft 472 kts 144°
2026-05-09 08:31 47.62265 10.23011 37132 ft 473 kts 144°
2026-05-09 08:31 47.57138 10.29128 37137 ft 473 kts 144°
2026-05-09 08:32 47.51753 10.34652 37126 ft 470 kts 150°
2026-05-09 08:33 47.43549 10.42604 37144 ft 470 kts 150°
2026-05-09 08:33 47.38084 10.47888 37155 ft 470 kts 150°
2026-05-09 08:34 47.32618 10.53165 37150 ft 470 kts 150°
2026-05-09 08:34 47.27157 10.58453 37140 ft 470 kts 149°
2026-05-09 08:35 47.21802 10.64004 37153 ft 471 kts 147°
2026-05-09 08:35 47.16507 10.69695 37161 ft 472 kts 147°
2026-05-09 08:36 47.11185 10.75339 37164 ft 472 kts 148°
2026-05-09 08:36 47.05840 10.80902 37149 ft 470 kts 148°
2026-05-09 08:37 47.00504 10.86427 37161 ft 469 kts 148°
2026-05-09 08:37 46.95169 10.91960 37173 ft 470 kts 148°
2026-05-09 08:38 46.89840 10.97490 37183 ft 470 kts 148°
2026-05-09 08:38 46.84507 11.03001 37177 ft 469 kts 148°
2026-05-09 08:39 46.79569 11.09276 37179 ft 475 kts 134°
2026-05-09 08:39 46.75267 11.16599 37180 ft 475 kts 134°
2026-05-09 08:40 46.70986 11.23839 37183 ft 475 kts 134°
2026-05-09 08:40 46.66671 11.31121 37160 ft 475 kts 134°
2026-05-09 08:41 46.62355 11.38387 37156 ft 474 kts 134°
2026-05-09 08:41 46.58034 11.45641 37135 ft 474 kts 134°
2026-05-09 08:42 46.53712 11.52883 37137 ft 475 kts 134°
2026-05-09 08:42 46.49376 11.60121 37139 ft 475 kts 134°
2026-05-09 08:43 46.45035 11.67360 37139 ft 476 kts 134°
2026-05-09 08:43 46.40684 11.74591 37143 ft 476 kts 134°
2026-05-09 08:44 46.36323 11.81815 37134 ft 476 kts 134°
2026-05-09 08:44 46.31955 11.89023 37112 ft 477 kts 135°
2026-05-09 08:45 46.27574 11.96235 37137 ft 478 kts 134°
2026-05-09 08:45 46.23191 12.03450 37130 ft 478 kts 135°
2026-05-09 08:46 46.18799 12.10656 37127 ft 478 kts 135°
2026-05-09 08:46 46.14404 12.17852 37115 ft 478 kts 135°
2026-05-09 08:47 46.10000 12.25030 37111 ft 478 kts 135°
2026-05-09 08:47 46.05587 12.32188 37104 ft 477 kts 135°
2026-05-09 08:48 46.01173 12.39330 37101 ft 477 kts 135°
2026-05-09 08:48 45.96770 12.46472 37100 ft 477 kts 135°
2026-05-09 08:49 45.92361 12.53601 37101 ft 477 kts 135°
2026-05-09 08:49 45.87943 12.60710 37108 ft 477 kts 135°
2026-05-09 08:50 45.83518 12.67820 37086 ft 478 kts 135°
2026-05-09 08:50 45.79079 12.74926 37121 ft 479 kts 135°
2026-05-09 08:51 45.74630 12.82025 37131 ft 479 kts 135°
2026-05-09 08:51 45.70172 12.89127 37126 ft 480 kts 135°
2026-05-09 08:52 45.65777 12.96310 37125 ft 481 kts 133°
2026-05-09 08:52 45.61677 13.03789 37110 ft 482 kts 130°
2026-05-09 08:53 45.57628 13.11413 37115 ft 482 kts 131°
2026-05-09 08:53 45.53502 13.18960 37119 ft 482 kts 131°
2026-05-09 08:54 45.49322 13.26439 37127 ft 482 kts 132°
2026-05-09 08:54 45.45127 13.33910 37121 ft 483 kts 132°
2026-05-09 08:55 45.40959 13.41397 37131 ft 483 kts 131°
2026-05-09 08:55 45.36803 13.48915 37127 ft 483 kts 131°
2026-05-09 08:56 45.32641 13.56423 37123 ft 483 kts 131°
2026-05-09 08:56 45.28458 13.63899 37115 ft 483 kts 131°
2026-05-09 08:57 45.24276 13.71365 37128 ft 483 kts 131°
2026-05-09 08:57 45.20087 13.78820 37133 ft 483 kts 131°
2026-05-09 08:58 45.15899 13.86256 37128 ft 483 kts 131°
2026-05-09 08:58 45.11709 13.93684 37127 ft 482 kts 132°
2026-05-09 08:59 45.07517 14.01104 37118 ft 483 kts 132°
2026-05-09 08:59 45.03317 14.08511 37120 ft 483 kts 132°
2026-05-09 09:00 44.99105 14.15906 37121 ft 483 kts 132°
2026-05-09 09:00 44.94889 14.23301 37123 ft 484 kts 132°
2026-05-09 09:01 44.90663 14.30686 37126 ft 484 kts 132°
2026-05-09 09:01 44.86434 14.38061 37130 ft 483 kts 132°
2026-05-09 09:02 44.82198 14.45426 37105 ft 484 kts 132°
2026-05-09 09:02 44.77955 14.52798 37113 ft 485 kts 132°
2026-05-09 09:03 44.73701 14.60167 37125 ft 485 kts 132°
2026-05-09 09:03 44.70164 14.66276 37129 ft 485 kts 132°
2026-05-09 09:04 44.65902 14.73604 37129 ft 484 kts 132°
2026-05-09 09:04 44.61647 14.80921 37127 ft 484 kts 132°
2026-05-09 09:05 44.57388 14.88232 37090 ft 484 kts 132°
2026-05-09 09:05 44.53110 14.95533 37088 ft 485 kts 133°
2026-05-09 09:06 44.48819 15.02844 37099 ft 486 kts 133°
2026-05-09 09:06 44.44523 15.10156 37094 ft 487 kts 133°
2026-05-09 09:07 44.40216 15.17463 37118 ft 486 kts 133°
2026-05-09 09:07 44.35913 15.24747 37116 ft 485 kts 133°
2026-05-09 09:08 44.31609 15.32021 37085 ft 486 kts 133°
2026-05-09 09:08 44.27290 15.39288 37091 ft 487 kts 133°
2026-05-09 09:09 44.22958 15.46550 37091 ft 487 kts 133°
2026-05-09 09:09 44.18628 15.53806 37099 ft 486 kts 133°
2026-05-09 09:10 44.14297 15.61041 37101 ft 486 kts 133°
2026-05-09 09:10 44.09965 15.68262 37082 ft 486 kts 133°
2026-05-09 09:11 44.05629 15.75489 37082 ft 487 kts 133°
2026-05-09 09:11 44.01306 15.82646 37093 ft 486 kts 133°
2026-05-09 09:12 43.96953 15.89831 37094 ft 486 kts 133°
2026-05-09 09:12 43.92603 15.97009 37093 ft 486 kts 133°
2026-05-09 09:13 43.88249 16.04179 37093 ft 486 kts 133°
2026-05-09 09:13 43.83897 16.11326 37085 ft 485 kts 133°
2026-05-09 09:14 43.79546 16.18467 37088 ft 485 kts 133°
2026-05-09 09:14 43.75179 16.25592 37092 ft 485 kts 133°
2026-05-09 09:15 43.70802 16.32707 37095 ft 486 kts 133°
2026-05-09 09:15 43.66432 16.39818 37095 ft 485 kts 133°
2026-05-09 09:16 43.62063 16.46907 37102 ft 484 kts 133°
2026-05-09 09:16 43.55511 16.57494 37080 ft 484 kts 133°
2026-05-09 09:17 43.51138 16.64533 37116 ft 483 kts 133°
2026-05-09 09:17 43.46766 16.71562 37128 ft 483 kts 133°
2026-05-09 09:18 43.42400 16.78564 37137 ft 481 kts 133°
2026-05-09 09:18 43.38043 16.85542 37124 ft 480 kts 133°
2026-05-09 09:19 43.33689 16.92501 37081 ft 480 kts 133°
2026-05-09 09:19 43.29324 16.99445 37078 ft 481 kts 134°
2026-05-09 09:20 43.24985 17.06342 37075 ft 481 kts 133°
2026-05-09 09:20 43.20577 17.13332 37087 ft 481 kts 134°
2026-05-09 09:21 43.16195 17.20259 37092 ft 481 kts 134°
2026-05-09 09:21 43.11807 17.27163 37089 ft 480 kts 134°
2026-05-09 09:22 43.07423 17.34066 37065 ft 481 kts 134°
2026-05-09 09:22 43.03032 17.40970 37060 ft 482 kts 134°
2026-05-09 09:23 42.98627 17.47865 37073 ft 481 kts 134°
2026-05-09 09:23 42.94217 17.54749 37087 ft 481 kts 134°
2026-05-09 09:24 42.89842 17.61579 37071 ft 481 kts 134°
2026-05-09 09:24 42.85436 17.68435 37081 ft 481 kts 134°
2026-05-09 09:25 42.81020 17.75281 37046 ft 481 kts 134°
2026-05-09 09:25 42.76598 17.82128 36823 ft 481 kts 134°
2026-05-09 09:26 42.74390 17.85538 36498 ft 479 kts 134°
2026-05-09 09:26 42.72184 17.88941 35863 ft 480 kts 134°
2026-05-09 09:26 42.69964 17.92359 35126 ft 484 kts 134°
2026-05-09 09:26 42.67735 17.95787 34529 ft 483 kts 134°
2026-05-09 09:27 42.65516 17.99197 34007 ft 480 kts 134°
2026-05-09 09:27 42.63310 18.02585 33439 ft 477 kts 134°
2026-05-09 09:27 42.61120 18.05944 32925 ft 473 kts 134°
2026-05-09 09:27 42.58944 18.09277 32381 ft 470 kts 134°
2026-05-09 09:28 42.56782 18.12584 31838 ft 467 kts 134°
2026-05-09 09:28 42.54635 18.15869 31321 ft 463 kts 134°
2026-05-09 09:28 42.52505 18.19128 30805 ft 460 kts 134°
2026-05-09 09:28 42.50391 18.22363 30285 ft 457 kts 134°
2026-05-09 09:29 42.48289 18.25576 29727 ft 453 kts 134°
2026-05-09 09:29 42.46206 18.28749 29234 ft 448 kts 134°
2026-05-09 09:29 42.44145 18.31882 28741 ft 443 kts 134°
2026-05-09 09:29 42.42106 18.34977 28270 ft 438 kts 134°
2026-05-09 09:30 42.40091 18.38032 27808 ft 433 kts 134°
2026-05-09 09:30 42.38093 18.41056 27355 ft 429 kts 134°
2026-05-09 09:30 42.36110 18.44050 26907 ft 425 kts 134°
2026-05-09 09:30 42.34145 18.47017 26478 ft 422 kts 134°
2026-05-09 09:31 42.32192 18.49966 26055 ft 420 kts 134°
2026-05-09 09:31 42.30249 18.52899 25604 ft 418 kts 134°
2026-05-09 09:31 42.28316 18.55817 25165 ft 416 kts 134°
2026-05-09 09:32 42.24459 18.61626 24265 ft 414 kts 133°
2026-05-09 09:32 42.22537 18.64517 23809 ft 414 kts 133°
2026-05-09 09:32 42.20615 18.67402 23288 ft 413 kts 133°
2026-05-09 09:32 42.18701 18.70270 22829 ft 410 kts 133°
2026-05-09 09:33 42.16798 18.73121 22350 ft 408 kts 133°
2026-05-09 09:33 42.14906 18.75955 21872 ft 405 kts 133°
2026-05-09 09:33 42.13027 18.78769 21392 ft 403 kts 133°
2026-05-09 09:33 42.11159 18.81565 20911 ft 400 kts 133°
2026-05-09 09:34 42.09301 18.84343 20437 ft 398 kts 133°
2026-05-09 09:34 42.07455 18.87102 19960 ft 395 kts 133°
2026-05-09 09:34 42.05620 18.89841 19492 ft 393 kts 133°
2026-05-09 09:36 41.93113 19.08406 16183 ft 370 kts 132°
2026-05-09 09:36 41.91418 19.10918 15740 ft 366 kts 131°
2026-05-09 09:36 41.89715 19.13436 15297 ft 362 kts 132°
2026-05-09 09:37 41.88031 19.15925 14850 ft 359 kts 132°
2026-05-09 09:37 41.86362 19.18391 14414 ft 355 kts 132°
2026-05-09 09:37 41.84709 19.20830 13981 ft 352 kts 132°
2026-05-09 09:37 41.83069 19.23243 13508 ft 348 kts 132°
2026-05-09 09:38 41.81451 19.25627 13093 ft 343 kts 132°
2026-05-09 09:38 41.79992 19.28129 12307 ft 339 kts 118°
2026-05-09 09:38 41.78985 19.30878 11832 ft 319 kts 115°
2026-05-09 09:38 41.78025 19.33497 11177 ft 309 kts 116°
2026-05-09 09:39 41.77078 19.36047 10437 ft 304 kts 116°
2026-05-09 09:39 41.76141 19.38563 9671 ft 300 kts 116°
2026-05-09 09:39 41.75217 19.41049 8894 ft 297 kts 116°
2026-05-09 09:39 41.74300 19.43513 8317 ft 295 kts 116°
2026-05-09 09:40 41.73394 19.45960 7758 ft 291 kts 115°
2026-05-09 09:40 41.72505 19.48377 7263 ft 289 kts 116°
2026-05-09 09:40 41.71615 19.50777 6730 ft 287 kts 116°
2026-05-09 09:40 41.70732 19.53159 6025 ft 285 kts 116°
2026-05-09 09:41 41.69855 19.55517 5501 ft 281 kts 116°
2026-05-09 09:41 41.68989 19.57860 5020 ft 283 kts 116°
2026-05-09 09:41 41.68119 19.60208 4801 ft 279 kts 117°
2026-05-09 09:41 41.67267 19.62485 4656 ft 268 kts 116°
2026-05-09 09:42 41.66454 19.64668 4550 ft 257 kts 117°
2026-05-09 09:42 41.65657 19.66774 4437 ft 249 kts 120°
2026-05-09 09:42 41.64544 19.68415 4310 ft 232 kts 147°
2026-05-09 09:42 41.63104 19.69170 4083 ft 217 kts 173°
2026-05-09 09:43 41.61629 19.69375 3824 ft 211 kts 175°
2026-05-09 09:43 41.60179 19.69564 3550 ft 208 kts 175°
2026-05-09 09:43 41.58740 19.69755 3275 ft 207 kts 175°
2026-05-09 09:43 41.57309 19.69946 2999 ft 206 kts 175°
2026-05-09 09:44 41.55885 19.70136 2726 ft 205 kts 175°
2026-05-09 09:44 41.54485 19.70323 2469 ft 198 kts 175°
2026-05-09 09:44 41.53177 19.70498 2195 ft 181 kts 175°
2026-05-09 09:44 41.51966 19.70660 1959 ft 171 kts 175°
2026-05-09 09:45 41.50803 19.70815 1751 ft 167 kts 175°
2026-05-09 09:45 41.49646 19.70969 1504 ft 167 kts 177°
2026-05-09 09:45 41.48518 19.71120 1270 ft 156 kts 176°
2026-05-09 09:45 41.47469 19.71260 1076 ft 148 kts 176°
2026-05-09 09:46 41.46451 19.71395 890 ft 146 kts 175°
2026-05-09 09:46 41.45444 19.71530 701 ft 146 kts 175°
2026-05-09 09:46 41.44438 19.71663 511 ft 145 kts 175°
2026-05-09 09:46 41.43430 19.71788 328 ft 146 kts 174°
2026-05-09 09:47 41.42429 19.71932 136 ft 144 kts 174°
2026-05-09 09:47 41.41537 19.72058 125 ft 111 kts 174°
2026-05-09 09:47 41.40941 19.72134 133 ft 69 kts 175°
2026-05-09 09:47 41.40543 19.72184 132 ft 47 kts 174°
2026-05-09 09:48 41.40337 19.72208 132 ft 15 kts 175°
2026-05-09 09:48 41.40253 19.72169 133 ft 13 kts 245°
2026-05-09 09:48 41.40238 19.72044 133 ft 15 kts 262°
2026-05-09 09:48 41.40284 19.71927 133 ft 16 kts 322°
2026-05-09 09:49 41.40376 19.71836 133 ft 18 kts 324°
2026-05-09 09:49 41.40496 19.71797 132 ft 19 kts 356°
2026-05-09 09:49 41.40631 19.71777 132 ft 20 kts 353°
2026-05-09 09:49 41.40779 19.71754 132 ft 22 kts 351°
2026-05-09 09:50 41.40939 19.71718 127 ft 24 kts 352°
2026-05-09 09:50 41.41112 19.71692 126 ft 26 kts 354°
2026-05-09 09:50 41.41298 19.71668 125 ft 28 kts 354°
2026-05-09 09:50 41.41468 19.71646 123 ft 25 kts 354°
2026-05-09 09:51 41.41634 19.71622 126 ft 22 kts 353°
2026-05-09 09:51 41.41739 19.71608 121 ft 24 kts 354°
2026-05-09 09:51 41.41902 19.71588 124 ft 25 kts 354°
2026-05-09 09:51 41.42034 19.71569 119 ft 18 kts 355°
2026-05-09 09:52 41.42154 19.71553 120 ft 17 kts 354°
2026-05-09 09:52 41.42270 19.71537 118 ft 16 kts 354°
2026-05-09 09:52 41.42375 19.71523 117 ft 14 kts 354°
2026-05-09 09:52 41.42469 19.71510 115 ft 13 kts 354°
2026-05-09 09:53 41.42552 19.71499 118 ft 10 kts 354°
2026-05-09 09:53 41.42577 19.71465 117 ft 4 kts 270°
2026-05-09 09:53 41.42576 19.71439 119 ft 2 kts 267°
2026-05-09 09:53 41.42576 19.71433 119 ft 0 kts 268°